Dades meteomassalio
Diari Summary for Maig 12, 2017 Units:  Metric    English   Both
« Previous Day
Next Day »
Diari Semanal Mensual Anual Personalitzat
  Maxima: Minima: Mijana:
Temperatura: -17.8 °C -12.1 °C -7.6 °C
Rosada: -17.8 °C -13.7 °C -13.1 °C
Humitat: Humidity % 35 % 55 %
Velocitat del vent: 0 km/h 0 km/h 13.8 km/h
Racha vent: 0 km/h - -
Vent:- - WSW
Pressio: 0 hPa 33971.7 hPa -
Pluja: 0 mm    
Historical Graphs
 
 
Tabular Data for Maig 12, 2017
Time Temperature Dew Point Pressure Wind Wind Speed Wind Gust Humidity Rainfall Rate (Hourly) solar Conditions
-17.8 °C -17.8 °C 0 hPa Calm     Humidity % 0 mm SolarRadiationWatts/m^2 W/m2 Conditions
00:00 -7.2 °C -13.4 °C 33971.7 hPa West 35.7 km/h 35.7 km/h 48 % 0 mm 0.0 W/m2 RA
00:05 -7.2 °C -13.5 °C 33971.7 hPa West 44.7 km/h 44.7 km/h 48 % 0 mm 0.0 W/m2 CLR
00:10 -7.3 °C -13.3 °C 33981.9 hPa West 32.8 km/h 32.8 km/h 49 % 0 mm 0.0 W/m2 CLR
00:15 -7.3 °C -13.4 °C 33981.9 hPa West 35.7 km/h 35.7 km/h 49 % 0 mm 0.0 W/m2 CLR
00:20 -7.4 °C -13.3 °C 33971.7 hPa West 44.7 km/h 44.7 km/h 50 % 0 mm 0.0 W/m2 CLR
00:25 -7.4 °C -13.4 °C 33971.7 hPa WSW 41.7 km/h 41.7 km/h 50 % 0 mm 0.0 W/m2 CLR
00:30 -7.5 °C -13.4 °C 33971.7 hPa West 38.8 km/h 38.8 km/h 50 % 0 mm 0.0 W/m2 CLR
00:35 -7.6 °C -13.3 °C 33981.9 hPa WSW 35.7 km/h 35.7 km/h 51 % 0 mm 0.0 W/m2 CLR
00:40 -7.7 °C -13.2 °C 33981.9 hPa West 32.8 km/h 32.8 km/h 52 % 0 mm 0.0 W/m2 CLR
00:46 -7.7 °C -13.2 °C 33971.7 hPa WNW 41.7 km/h 41.7 km/h 52 % 0 mm 0.0 W/m2 CLR
00:51 -7.7 °C -13.2 °C 33971.7 hPa West 38.8 km/h 38.8 km/h 52 % 0 mm 0.0 W/m2 CLR
00:56 -7.7 °C -13.2 °C 33971.7 hPa West 44.7 km/h 44.7 km/h 52 % 0 mm 0.0 W/m2 CLR
01:01 -7.7 °C -13.2 °C 33981.9 hPa West 29.8 km/h 29.8 km/h 52 % 0 mm 0.0 W/m2 CLR
01:06 -7.7 °C -13.2 °C 33981.9 hPa West 29.8 km/h 29.8 km/h 53 % 0 mm 0.0 W/m2 CLR
01:11 -7.8 °C -13.2 °C 33981.9 hPa WNW 29.8 km/h 29.8 km/h 53 % 0 mm 0.0 W/m2 CLR
01:16 -7.9 °C -13.3 °C 33981.9 hPa WNW 26.9 km/h 26.9 km/h 53 % 0 mm 0.0 W/m2 CLR
01:21 -8.1 °C -13.3 °C 33981.9 hPa WNW 26.9 km/h 26.9 km/h 54 % 0 mm 0.0 W/m2 CLR
01:26 -8.1 °C -13.2 °C 33992.1 hPa WNW 32.8 km/h 32.8 km/h 55 % 0 mm 0.0 W/m2 CLR
01:31 -8.2 °C -13.2 °C 33992.1 hPa WNW 26.9 km/h 26.9 km/h 55 % 0 mm 0.0 W/m2 CLR
01:36 -8.3 °C -13.1 °C 33992.1 hPa NW 26.9 km/h 26.9 km/h 57 % 0 mm 0.0 W/m2 CLR
01:41 -8.4 °C -13.2 °C 33992.1 hPa WNW 26.9 km/h 26.9 km/h 57 % 0 mm 0.0 W/m2 CLR
01:46 -8.4 °C -13.2 °C 33992.1 hPa WNW 26.9 km/h 27.7 km/h 57 % 0 mm 0.0 W/m2 CLR
01:51 -8.4 °C -13.2 °C 33992.1 hPa NW 29.8 km/h 29.8 km/h 57 % 0 mm 0.0 W/m2 CLR
01:56 -8.4 °C -13.1 °C 33992.1 hPa WNW 32.8 km/h 32.8 km/h 58 % 0 mm 0.0 W/m2 CLR
02:01 -8.4 °C -13.2 °C 33981.9 hPa WNW 32.8 km/h 32.8 km/h 57 % 0 mm 0.0 W/m2 CLR
02:06 -8.5 °C -13.2 °C 33992.1 hPa WNW 32.8 km/h 32.8 km/h 57 % 0 mm 0.0 W/m2 CLR
02:11 -8.5 °C -13.3 °C 33992.1 hPa NW 29.8 km/h 29.8 km/h 57 % 0 mm 0.0 W/m2 CLR
02:16 -8.6 °C -13.2 °C 33981.9 hPa NW 20.9 km/h 20.9 km/h 58 % 0 mm 0.0 W/m2 CLR
02:21 -8.7 °C -13.2 °C 33981.9 hPa WNW 26.9 km/h 26.9 km/h 59 % 0 mm 0.0 W/m2 CLR
02:26 -8.8 °C -13.2 °C 33981.9 hPa West 29.8 km/h 29.8 km/h 60 % 0 mm 0.0 W/m2 CLR
02:31 -8.7 °C -13.3 °C 33981.9 hPa WNW 29.8 km/h 29.8 km/h 58 % 0 mm 0.0 W/m2 CLR
02:36 -8.5 °C -13.2 °C 33981.9 hPa WNW 32.8 km/h 32.8 km/h 57 % 0 mm 0.0 W/m2 CLR
02:41 -8.4 °C -13.3 °C 33981.9 hPa WNW 29.8 km/h 29.8 km/h 56 % 0 mm 0.0 W/m2 CLR
02:46 -8.5 °C -13.2 °C 33992.1 hPa WNW 26.9 km/h 26.9 km/h 57 % 0 mm 0.0 W/m2 CLR
02:51 -8.6 °C -13.3 °C 33992.1 hPa WNW 23.8 km/h 23.8 km/h 57 % 0 mm 0.0 W/m2 CLR
02:56 -8.7 °C -13.3 °C 33992.1 hPa WNW 9 km/h 9 km/h 58 % 0 mm 0.0 W/m2 CLR
03:01 -8.8 °C -13.3 °C 33981.9 hPa Calm     59 % 0 mm 0.0 W/m2 CLR
03:06 -9.1 °C -13.3 °C 33992.1 hPa Calm     60 % 0 mm 0.0 W/m2 CLR
03:11 -9.2 °C -13.2 °C 33981.9 hPa Calm     62 % 0 mm 0.0 W/m2 CLR
03:16 -9.3 °C -13.2 °C 33981.9 hPa Calm     63 % 0 mm 0.0 W/m2 CLR
03:21 -9.4 °C -13.2 °C 33981.9 hPa Calm     64 % 0 mm 0.0 W/m2 CLR
03:26 -9.5 °C -13 °C 33981.9 hPa Calm     66 % 0 mm 0.0 W/m2 CLR
03:31 -9.7 °C -12.9 °C 33992.1 hPa Calm     68 % 0 mm 0.0 W/m2 CLR
03:36 -9.9 °C -13.1 °C 33992.1 hPa Calm     68 % 0 mm 0.0 W/m2 CLR
03:41 -9.9 °C -13.2 °C 33992.1 hPa Calm     68 % 0 mm 0.0 W/m2 CLR
03:46 -10.1 °C -13.3 °C 33992.1 hPa Calm     68 % 0 mm 0.0 W/m2 CLR
03:51 -10.1 °C -13.2 °C 33992.1 hPa Calm     69 % 0 mm 0.0 W/m2 CLR
03:56 -10.2 °C -13.2 °C 34005.6 hPa Calm     70 % 0 mm 0.0 W/m2 CLR
04:01 -10.4 °C -13.2 °C 34005.6 hPa Calm     71 % 0 mm 0.0 W/m2 CLR
04:06 -10.5 °C -13.2 °C 34005.6 hPa Calm     72 % 0 mm 0.0 W/m2 CLR
04:11 -10.6 °C -13.3 °C 34005.6 hPa Calm     72 % 0 mm 0.0 W/m2 CLR
04:16 -10.6 °C -13.2 °C 34005.6 hPa Calm     73 % 0 mm 0.0 W/m2 CLR
04:21 -10.7 °C -13.3 °C 34005.6 hPa Calm     73 % 0 mm 0.0 W/m2 CLR
04:26 -10.7 °C -13.2 °C 34005.6 hPa Calm     75 % 0 mm 0.0 W/m2 CLR
04:31 -11 °C -13.3 °C 34005.6 hPa Calm     76 % 0 mm 0.0 W/m2 CLR
04:36 -11.2 °C -13.3 °C 34005.6 hPa Calm     78 % 0 mm 0.0 W/m2 CLR
04:41 -11.3 °C -13.2 °C 34005.6 hPa Calm     79 % 0 mm 0.0 W/m2 CLR
04:46 -11.3 °C -13.3 °C 34005.6 hPa Calm     79 % 0 mm 0.0 W/m2 CLR
04:51 -11.4 °C -13.3 °C 34005.6 hPa Calm     80 % 0 mm 0.0 W/m2 CLR
04:56 -11.5 °C -13.3 °C 34005.6 hPa Calm     80 % 0 mm 0.0 W/m2 CLR
05:01 -11.6 °C -13.3 °C 34005.6 hPa Calm     81 % 0 mm 0.0 W/m2 CLR
05:06 -11.6 °C -13.3 °C 34005.6 hPa Calm     81 % 0 mm 0.0 W/m2 CLR
05:11 -11.6 °C -13.4 °C 34005.6 hPa Calm     81 % 0 mm 0.0 W/m2 CLR
05:16 -11.7 °C -13.4 °C 34005.6 hPa Calm     82 % 0 mm 0.0 W/m2 CLR
05:21 -11.8 °C -13.4 °C 34005.6 hPa Calm     82 % 0 mm 0.0 W/m2 CLR
05:26 -11.8 °C -13.4 °C 34005.6 hPa Calm     82 % 0 mm 0.0 W/m2 CLR
05:31 -11.8 °C -13.4 °C 34005.6 hPa Calm     83 % 0 mm 0.0 W/m2 CLR
05:36 -11.9 °C -13.4 °C 34005.6 hPa Calm     83 % 0 mm 0.0 W/m2 CLR
05:41 -11.9 °C -13.4 °C 34005.6 hPa Calm     84 % 0 mm 0.0 W/m2 CLR
05:46 -12 °C -13.4 °C 34005.6 hPa Calm     84 % 0 mm 0.0 W/m2 CLR
05:51 -12 °C -13.4 °C 34005.6 hPa Calm     84 % 0 mm 0.0 W/m2 CLR
05:56 -12 °C -13.4 °C 34005.6 hPa Calm     84 % 0 mm 0.0 W/m2 CLR
06:01 -12.1 °C -13.4 °C 34005.6 hPa Calm     85 % 0 mm 0.0 W/m2 CLR
06:06 -12 °C -13.4 °C 34015.8 hPa Calm     84 % 0 mm 0.0 W/m2 CLR
06:11 -12 °C -13.5 °C 34015.8 hPa Calm     83 % 0 mm 0.0 W/m2 CLR
06:16 -11.9 °C -13.4 °C 34005.6 hPa Calm     83 % 0 mm 0.0 W/m2 CLR
06:21 -11.8 °C -13.4 °C 34015.8 hPa Calm     83 % 0 mm 0.0 W/m2 CLR
06:26 -11.8 °C -13.4 °C 34015.8 hPa Calm     83 % 0 mm 0.0 W/m2 CLR
06:32 -11.8 °C -13.4 °C 34015.8 hPa Calm     83 % 0 mm 0.0 W/m2 CLR
06:37 -11.8 °C -13.3 °C 34029.3 hPa Calm     84 % 0 mm 7.0 W/m2 OVC
06:42 -11.8 °C -13.3 °C 34029.3 hPa Calm     84 % 0 mm 14.0 W/m2 OVC
06:47 -11.9 °C -13.3 °C 34029.3 hPa Calm     84 % 0 mm 18.0 W/m2 OVC
06:52 -11.9 °C -13.3 °C 34029.3 hPa Calm     84 % 0 mm 19.0 W/m2 BKN
06:57 -11.9 °C -13.4 °C 34029.3 hPa Calm     83 % 0 mm 18.0 W/m2 BKN
07:02 -11.8 °C -13.3 °C 34039.5 hPa Calm     84 % 0 mm 18.0 W/m2 BKN
07:07 -11.8 °C -13.3 °C 34039.5 hPa Calm     84 % 0 mm 23.0 W/m2 BKN
07:12 -11.8 °C -13.2 °C 34029.3 hPa Calm     84 % 0 mm 25.0 W/m2 BKN
07:17 -11.7 °C -13.2 °C 34039.5 hPa Calm     84 % 0 mm 21.0 W/m2 BKN
07:22 -11.6 °C -13.2 °C 34039.5 hPa Calm     83 % 0 mm 33.0 W/m2 BKN
07:27 -11.6 °C -13.1 °C 34039.5 hPa Calm     83 % 0 mm 32.0 W/m2 BKN
07:32 -11.5 °C -13.2 °C 34039.5 hPa Calm     82 % 0 mm 32.0 W/m2 BKN
07:37 -11.4 °C -13.1 °C 34039.5 hPa Calm     82 % 0 mm 40.0 W/m2 BKN
07:42 -11.4 °C -13.1 °C 34039.5 hPa Calm     82 % 0 mm 63.0 W/m2 SCT
07:47 -11.4 °C -13.1 °C 34049.6 hPa Calm     82 % 0 mm 74.0 W/m2 SCT
07:52 -11.3 °C -13 °C 34049.6 hPa Calm     82 % 0 mm 72.0 W/m2 FEW
07:57 -11.3 °C -12.8 °C 34049.6 hPa Calm     83 % 0 mm 70.0 W/m2 FEW
08:02 -11.2 °C -12.9 °C 34049.6 hPa Calm     82 % 0 mm 67.0 W/m2 FEW
08:07 -11.1 °C -12.8 °C 34049.6 hPa Calm     82 % 0 mm 72.0 W/m2 FEW
08:12 -11.1 °C -12.8 °C 34049.6 hPa Calm     81 % 0 mm 83.0 W/m2 FEW
08:17 -10.9 °C -12.7 °C 34049.6 hPa Calm     81 % 0 mm 179.0 W/m2 FEW
08:22 -10.7 °C -12.6 °C 34049.6 hPa Calm     80 % 0 mm 225.0 W/m2 CLR
08:27 -10.5 °C -12.6 °C 34049.6 hPa Calm     78 % 0 mm 197.0 W/m2 CLR
08:32 -10.3 °C -12.7 °C 34049.6 hPa Calm     76 % 0 mm 253.0 W/m2 CLR
08:37 -10.1 °C -12.4 °C 34049.6 hPa Calm     76 % 0 mm 304.0 W/m2 CLR
08:38 -10.1 °C -12.3 °C 34049.6 hPa Calm     76 % 0 mm 311.0 W/m2 CLR
08:43 -9.8 °C -12.3 °C 34049.6 hPa Calm     74 % 0 mm 336.0 W/m2 CLR
08:48 -9.6 °C -12.4 °C 34049.6 hPa Calm     72 % 0 mm 352.0 W/m2 CLR
08:53 -9.3 °C -12.5 °C 34049.6 hPa West 6 km/h 6 km/h 69 % 0 mm 390.0 W/m2 CLR
08:58 -9.1 °C -12.4 °C 34049.6 hPa Calm     67 % 0 mm 374.0 W/m2 CLR
09:03 -8.8 °C -12.3 °C 34049.6 hPa Calm     66 % 0 mm 427.0 W/m2 CLR
09:08 -8.4 °C -12.3 °C 34049.6 hPa Calm     64 % 0 mm 373.0 W/m2 CLR
09:13 -8.1 °C -12.4 °C 34049.6 hPa Calm     60 % 0 mm 478.0 W/m2 CLR
09:18 -7.8 °C -12 °C 34049.6 hPa West 10.3 km/h 10.3 km/h 61 % 0 mm 471.0 W/m2 CLR
09:23 -7.7 °C -13.1 °C 34049.6 hPa West 15 km/h 15 km/h 53 % 0 mm 520.0 W/m2 CLR
09:28 -7.7 °C -13.3 °C 34049.6 hPa West 26.9 km/h 26.9 km/h 52 % 0 mm 343.0 W/m2 CLR
09:33 -7.7 °C -13.1 °C 34049.6 hPa NW 18.2 km/h 18.2 km/h 53 % 0 mm 306.0 W/m2 CLR
09:38 -7.7 °C -13.3 °C 34049.6 hPa WNW 17.9 km/h 17.9 km/h 52 % 0 mm 313.0 W/m2 CLR
09:43 -7.7 °C -13.4 °C 34063.2 hPa West 23.8 km/h 23.8 km/h 51 % 0 mm 323.0 W/m2 CLR
09:48 -7.7 °C -13.1 °C 34063.2 hPa NW 12.9 km/h 12.9 km/h 53 % 0 mm 367.0 W/m2 CLR
09:53 -7.6 °C -13 °C 34049.6 hPa West 9 km/h 9 km/h 53 % 0 mm 441.0 W/m2 CLR
09:58 -7.6 °C -13.3 °C 34049.6 hPa WNW 15.6 km/h 15.6 km/h 51 % 0 mm 570.0 W/m2 CLR
10:03 -7.6 °C -13.2 °C 34063.2 hPa NW 11.9 km/h 11.9 km/h 52 % 0 mm 473.0 W/m2 CLR
10:08 -7.4 °C -12.7 °C 34049.6 hPa NNW 11.9 km/h 11.9 km/h 54 % 0 mm 411.0 W/m2 CLR
10:13 -7.4 °C -13 °C 34063.2 hPa NW 20.9 km/h 20.9 km/h 52 % 0 mm 594.0 W/m2 CLR
10:18 -7.3 °C -12.8 °C 34063.2 hPa NW 26.9 km/h 26.9 km/h 53 % 0 mm 466.0 W/m2 CLR
10:23 -7.3 °C -13.1 °C 34063.2 hPa NW 9 km/h 9.3 km/h 51 % 0 mm 378.0 W/m2 CLR
10:28 -7.4 °C -12.9 °C 34063.2 hPa WNW 12.9 km/h 12.9 km/h 53 % 0 mm 385.0 W/m2 CLR
10:33 -7.5 °C -13.1 °C 34063.2 hPa West 3.1 km/h 3.1 km/h 52 % 0 mm 360.0 W/m2 CLR
10:38 -7.4 °C -13.1 °C 34063.2 hPa NW 10.3 km/h 10.3 km/h 52 % 0 mm 455.0 W/m2 CLR
10:43 -7.4 °C -12.8 °C 34073.3 hPa NW 23.8 km/h 23.8 km/h 53 % 0 mm 608.0 W/m2 CLR
10:48 -7.3 °C -12.9 °C 34073.3 hPa NW 15 km/h 15 km/h 52 % 0 mm 415.0 W/m2 CLR
10:53 -7.4 °C -12.9 °C 34073.3 hPa NW 20.9 km/h 20.9 km/h 52 % 0 mm 394.0 W/m2 CLR
10:58 -7.3 °C -12.9 °C 34073.3 hPa WNW 15 km/h 15 km/h 52 % 0 mm 443.0 W/m2 CLR
11:03 -7.3 °C -13.4 °C 34073.3 hPa West 18.2 km/h 18.2 km/h 49 % 0 mm 534.0 W/m2 CLR
11:08 -7.3 °C -13.1 °C 34073.3 hPa WSW 12.9 km/h 12.9 km/h 51 % 0 mm 599.0 W/m2 CLR
11:13 -7.2 °C -12.9 °C 34073.3 hPa WNW 9 km/h 9 km/h 51 % 0 mm 657.0 W/m2 CLR
11:18 -7.1 °C -13 °C 34073.3 hPa West 9 km/h 9 km/h 50 % 0 mm 431.0 W/m2 CLR
11:23 -7 °C -13.1 °C 34073.3 hPa Calm     49 % 0 mm 322.0 W/m2 CLR
11:28 -7.1 °C -12.9 °C 34086.9 hPa WNW 11.9 km/h 11.9 km/h 50 % 0 mm 385.0 W/m2 CLR
11:33 -7 °C -13.2 °C 34086.9 hPa West 26.9 km/h 26.9 km/h 48 % 0 mm 599.0 W/m2 CLR
11:39 -6.8 °C -13.2 °C 34073.3 hPa WSW 18.2 km/h 18.2 km/h 48 % 0 mm 896.0 W/m2 CLR
11:43 -6.8 °C -12.8 °C 34073.3 hPa West 9 km/h 9 km/h 50 % 0 mm 341.0 W/m2 CLR
11:49 -6.9 °C -13.1 °C 34073.3 hPa West 11.9 km/h 11.9 km/h 49 % 0 mm 570.0 W/m2 CLR
11:54 -6.8 °C -13.1 °C 34073.3 hPa WNW 9 km/h 9 km/h 48 % 0 mm 838.0 W/m2 CLR
11:59 -6.6 °C -12.9 °C 34086.9 hPa NW 26.9 km/h 26.9 km/h 48 % 0 mm 830.0 W/m2 CLR
12:04 -6.5 °C -13 °C 34073.3 hPa WNW 23.8 km/h 23.8 km/h 47 % 0 mm 835.0 W/m2 CLR
12:09 -6.4 °C -12.9 °C 34073.3 hPa NW 11.9 km/h 11.9 km/h 47 % 0 mm 835.0 W/m2 CLR
12:14 -6.2 °C -12.9 °C 34073.3 hPa WNW 20.8 km/h 20.8 km/h 46 % 0 mm 858.0 W/m2 CLR
12:19 -6.2 °C -12.9 °C 34073.3 hPa WNW 32.8 km/h 32.8 km/h 46 % 0 mm 879.0 W/m2 CLR
12:24 -6.2 °C -13.1 °C 34073.3 hPa West 15 km/h 15 km/h 45 % 0 mm 946.0 W/m2 CLR
12:29 -6.2 °C -13.1 °C 34073.3 hPa NW 15.6 km/h 15.6 km/h 45 % 0 mm 1071.0 W/m2 CLR
12:34 -6.1 °C -13.2 °C 34073.3 hPa NW 11.9 km/h 11.9 km/h 44 % 0 mm 220.0 W/m2 CLR
12:39 -5.9 °C -12.8 °C 34073.3 hPa NW 41.7 km/h 41.7 km/h 45 % 0 mm 378.0 W/m2 CLR
12:44 -6 °C -12.7 °C 34073.3 hPa West 18.2 km/h 18.2 km/h 46 % 0 mm 397.0 W/m2 CLR
12:49 -6 °C -13.3 °C 34073.3 hPa WNW 32.8 km/h 32.8 km/h 43 % 0 mm 425.0 W/m2 CLR
12:59 -5.9 °C -13.2 °C 34086.9 hPa West 35.7 km/h 35.7 km/h 43 % 0 mm 360.0 W/m2 CLR
13:04 -6.1 °C -13.3 °C 34086.9 hPa West 41.7 km/h 41.7 km/h 43 % 0 mm 348.0 W/m2 CLR
13:09 -6.2 °C -13.1 °C 34073.3 hPa WNW 50.7 km/h 50.7 km/h 45 % 0 mm 306.0 W/m2 CLR
13:14 -6.2 °C -12.7 °C 34086.9 hPa NW 12.9 km/h 12.9 km/h 47 % 0 mm 417.0 W/m2 CLR
13:19 -6.2 °C -12.7 °C 34073.3 hPa WNW 9 km/h 9 km/h 47 % 0 mm 482.0 W/m2 CLR
13:24 -5.8 °C -13.1 °C 34073.3 hPa West 32.8 km/h 32.8 km/h 43 % 0 mm 357.0 W/m2 CLR
13:29 -5.7 °C -12.6 °C 34073.3 hPa NNW 29.8 km/h 29.8 km/h 45 % 0 mm 1100.0 W/m2 CLR
13:34 -5.7 °C -13.2 °C 34073.3 hPa NNW 35.7 km/h 35.7 km/h 42 % 0 mm 334.0 W/m2 CLR
13:39 -5.5 °C -12.7 °C 34073.3 hPa WNW 32.8 km/h 32.8 km/h 44 % 0 mm 1155.0 W/m2 CLR
13:44 -5.3 °C -12.9 °C 34073.3 hPa NW 35.7 km/h 35.7 km/h 42 % 0 mm 1023.0 W/m2 CLR
13:49 -5.4 °C -13.3 °C 34073.3 hPa NW 29.8 km/h 29.8 km/h 40 % 0 mm 956.0 W/m2 CLR
13:54 -5.3 °C -13.3 °C 34073.3 hPa Calm     40 % 0 mm 1215.0 W/m2 CLR
13:59 -5.3 °C -13.3 °C 34063.2 hPa WSW 17.9 km/h 17.9 km/h 40 % 0 mm 990.0 W/m2 CLR
14:04 -5.2 °C -12.9 °C 34063.2 hPa WSW 20.9 km/h 20.9 km/h 41 % 0 mm 976.0 W/m2 CLR
14:09 -5.1 °C -13.1 °C 34063.2 hPa North 9 km/h 9 km/h 40 % 0 mm 1023.0 W/m2 CLR
14:14 -5.2 °C -13.1 °C 34063.2 hPa NW 32.8 km/h 32.8 km/h 40 % 0 mm 248.0 W/m2 CLR
14:19 -5.3 °C -13.2 °C 34073.3 hPa NW 29.8 km/h 29.8 km/h 40 % 0 mm 299.0 W/m2 CLR
14:24 -5.3 °C -13 °C 34073.3 hPa North 25.9 km/h 25.9 km/h 41 % 0 mm 371.0 W/m2 CLR
14:29 -5.3 °C -13.3 °C 34063.2 hPa West 10.3 km/h 10.3 km/h 40 % 0 mm 338.0 W/m2 CLR
14:34 -5.2 °C -12.9 °C 34063.2 hPa Calm     41 % 0 mm 1296.0 W/m2 CLR
14:39 -4.9 °C -13.1 °C 34063.2 hPa NNW 12.9 km/h 12.9 km/h 39 % 0 mm 241.0 W/m2 CLR
14:44 -5.2 °C -13.3 °C 34063.2 hPa NNW 41.7 km/h 41.7 km/h 39 % 0 mm 264.0 W/m2 CLR
14:49 -5.4 °C -13.3 °C 34073.3 hPa NW 36.2 km/h 36.2 km/h 40 % 0 mm 250.0 W/m2 CLR
14:54 -5.6 °C -13.3 °C 34073.3 hPa NW 29.8 km/h 29.8 km/h 41 % 0 mm 285.0 W/m2 CLR
14:59 -5.6 °C -13.3 °C 34073.3 hPa NW 29.8 km/h 29.8 km/h 41 % 0 mm 455.0 W/m2 CLR
15:04 -5.3 °C -13.1 °C 34073.3 hPa NNW 26.9 km/h 26.9 km/h 41 % 0 mm 418.0 W/m2 CLR
15:09 -5.4 °C -13.3 °C 34063.2 hPa NNE 3.1 km/h 3.1 km/h 40 % 0 mm 413.0 W/m2 CLR
15:15 -5.3 °C -13.3 °C 34063.2 hPa Calm     40 % 0 mm 482.0 W/m2 CLR
15:20 -5.1 °C -13.1 °C 34063.2 hPa Calm   1.3 km/h 40 % 0 mm 1141.0 W/m2 CLR
15:25 -4.8 °C -13.2 °C 34063.2 hPa ENE 11.9 km/h 11.9 km/h 38 % 0 mm 1099.0 W/m2 CLR
15:30 -4.7 °C -12.9 °C 34063.2 hPa ENE 11.9 km/h 11.9 km/h 39 % 0 mm 580.0 W/m2 CLR
15:35 -4.7 °C -12.9 °C 34049.6 hPa NNE 7.7 km/h 7.7 km/h 39 % 0 mm 580.0 W/m2 CLR
15:40 -4.7 °C -13.1 °C 34049.6 hPa ENE 20.9 km/h 20.9 km/h 38 % 0 mm 339.0 W/m2 CLR
15:45 -4.8 °C -12.9 °C 34049.6 hPa ENE 9 km/h   39 % 0 mm 281.0 W/m2 CLR
15:50 -4.9 °C -13.3 °C 34049.6 hPa East 5.1 km/h 5.1 km/h 38 % 0 mm 380.0 W/m2 CLR
15:55 -4.9 °C -13.1 °C 34049.6 hPa ENE 6 km/h 6 km/h 39 % 0 mm 1187.0 W/m2 CLR
16:00 -4.8 °C -13.2 °C 34049.6 hPa East 15 km/h 15 km/h 38 % 0 mm 439.0 W/m2 CLR
16:05 -4.7 °C -12.9 °C 34049.6 hPa NE 23.8 km/h 23.8 km/h 39 % 0 mm 1062.0 W/m2 CLR
16:10 -4.6 °C -12.9 °C 34049.6 hPa ENE 17.9 km/h 17.9 km/h 38 % 0 mm 234.0 W/m2 CLR
16:15 -4.7 °C -13.1 °C 34049.6 hPa NE 15.6 km/h 15.6 km/h 38 % 0 mm 260.0 W/m2 CLR
16:20 -4.9 °C -13.3 °C 34049.6 hPa NE 9 km/h 9 km/h 38 % 0 mm 258.0 W/m2 CLR
16:25 -4.9 °C -13.4 °C 34049.6 hPa ENE 9 km/h   38 % 0 mm 359.0 W/m2 CLR
16:30 -5 °C -13.4 °C 34049.6 hPa ENE 10.3 km/h 10.3 km/h 38 % 0 mm 278.0 W/m2 CLR
16:35 -4.9 °C -13.3 °C 34049.6 hPa East 11.9 km/h 11.9 km/h 38 % 0 mm 276.0 W/m2 CLR
16:40 -4.9 °C -13.5 °C 34049.6 hPa SE 10.3 km/h 10.3 km/h 37 % 0 mm 241.0 W/m2 CLR
16:45 -4.9 °C -13.3 °C 34049.6 hPa Calm     38 % 0 mm 225.0 W/m2 CLR
16:50 -4.9 °C -13.6 °C 34039.5 hPa ENE 9 km/h 9 km/h 37 % 0 mm 220.0 W/m2 CLR
16:55 -4.9 °C -13.2 °C 34039.5 hPa Calm     39 % 0 mm 213.0 W/m2 CLR
17:00 -4.9 °C -13.6 °C 34039.5 hPa SW 9 km/h 9 km/h 37 % 0 mm 174.0 W/m2 CLR
17:05 -5 °C -13.4 °C 34039.5 hPa Calm     38 % 0 mm 216.0 W/m2 CLR
17:10 -5 °C -13.6 °C 34049.6 hPa Calm     37 % 0 mm 197.0 W/m2 CLR
17:15 -4.9 °C -13.6 °C 34039.5 hPa SE 11.9 km/h 11.9 km/h 37 % 0 mm 142.0 W/m2 CLR
17:20 -5.1 °C -13.7 °C 34039.5 hPa SE 11.9 km/h 11.9 km/h 37 % 0 mm 142.0 W/m2 CLR
17:25 -5.1 °C -13.4 °C 34039.5 hPa SE 9 km/h 9 km/h 38 % 0 mm 139.0 W/m2 CLR
17:30 -5 °C -13.4 °C 34039.5 hPa ENE 3.1 km/h 3.1 km/h 38 % 0 mm 218.0 W/m2 CLR
17:35 -4.9 °C -13.2 °C 34049.6 hPa East 9 km/h 9 km/h 39 % 0 mm 285.0 W/m2 CLR
17:40 -4.9 °C -13.1 °C 34049.6 hPa ENE 9 km/h 9 km/h 39 % 0 mm 248.0 W/m2 CLR
17:45 -4.8 °C -13.2 °C 34049.6 hPa ENE 20.8 km/h 20.8 km/h 38 % 0 mm 292.0 W/m2 CLR
17:50 -4.8 °C -13 °C 34049.6 hPa NE 15 km/h 15 km/h 39 % 0 mm 255.0 W/m2 CLR
17:55 -4.8 °C -13.2 °C 34049.6 hPa ENE 17.9 km/h 17.9 km/h 38 % 0 mm 251.0 W/m2 CLR
18:00 -4.8 °C -13.2 °C 34063.2 hPa ENE 17.9 km/h 17.9 km/h 38 % 0 mm 279.0 W/m2 CLR
18:05 -4.7 °C -13.2 °C 34063.2 hPa ENE 9 km/h 9 km/h 38 % 0 mm 496.0 W/m2 CLR
18:10 -4.7 °C -13.3 °C 34063.2 hPa Calm   0.3 km/h 37 % 0 mm 626.0 W/m2 CLR
18:15 -4.5 °C -13.2 °C 34063.2 hPa Calm     37 % 0 mm 578.0 W/m2 CLR
18:20 -4.4 °C -13.1 °C 34063.2 hPa Calm     37 % 0 mm 332.0 W/m2 CLR
18:25 -4.3 °C -13 °C 34063.2 hPa Calm     37 % 0 mm 213.0 W/m2 CLR
18:30 -4.3 °C -13.5 °C 34063.2 hPa Calm     35 % 0 mm 156.0 W/m2 CLR
18:35 -4.4 °C -13.3 °C 34063.2 hPa Calm     36 % 0 mm 167.0 W/m2 CLR
18:40 -4.4 °C -13.1 °C 34063.2 hPa Calm     37 % 0 mm 227.0 W/m2 CLR
18:45 -4.5 °C -13.4 °C 34063.2 hPa West 3.1 km/h   36 % 0 mm 190.0 W/m2 CLR
18:50 -4.5 °C -13.4 °C 34073.3 hPa Calm     36 % 0 mm 174.0 W/m2 CLR
18:55 -4.6 °C -13.4 °C 34063.2 hPa Calm     36 % 0 mm 179.0 W/m2 CLR
19:00 -4.5 °C -13.2 °C 34063.2 hPa Calm     37 % 0 mm 448.0 W/m2 CLR
19:05 -4.2 °C -13.4 °C 34063.2 hPa ENE 9 km/h 9 km/h 35 % 0 mm 455.0 W/m2 CLR
19:10 -4.1 °C -13.3 °C 34063.2 hPa North 38.8 km/h 38.8 km/h 35 % 0 mm 135.0 W/m2 CLR
19:15 -4.4 °C -13.5 °C 34073.3 hPa WNW 38.8 km/h 38.8 km/h 35 % 0 mm 105.0 W/m2 CLR
19:20 -4.6 °C -13.4 °C 34073.3 hPa WNW 15 km/h 15 km/h 36 % 0 mm 95.0 W/m2 CLR
19:25 -4.8 °C -13.4 °C 34073.3 hPa WNW 17.9 km/h 17.9 km/h 37 % 0 mm 97.0 W/m2 CLR
19:30 -4.8 °C -13.4 °C 34073.3 hPa WNW 29.8 km/h 29.8 km/h 37 % 0 mm 90.0 W/m2 CLR
19:35 -4.8 °C -13.2 °C 34073.3 hPa NW 7.7 km/h 7.7 km/h 38 % 0 mm 90.0 W/m2 CLR
19:40 -4.9 °C -13.3 °C 34073.3 hPa WNW 17.9 km/h 17.9 km/h 38 % 0 mm 79.0 W/m2 CLR
19:45 -4.9 °C -13.6 °C 34086.9 hPa NW 15 km/h 15 km/h 37 % 0 mm 98.0 W/m2 CLR
19:50 -4.9 °C -13.3 °C 34086.9 hPa NW 17.9 km/h 17.9 km/h 38 % 0 mm 91.0 W/m2 CLR
19:55 -4.9 °C -13.4 °C 34086.9 hPa NW 11.9 km/h 11.9 km/h 38 % 0 mm 81.0 W/m2 CLR
20:00 -5 °C -13.4 °C 34086.9 hPa NW 11.9 km/h 11.9 km/h 38 % 0 mm 54.0 W/m2 FEW
20:05 -5.1 °C -13.4 °C 34097 hPa NW 15.6 km/h 15.6 km/h 38 % 0 mm 37.0 W/m2 SCT
20:10 -5.1 °C -13.4 °C 34097 hPa NW 9 km/h 9 km/h 38 % 0 mm 25.0 W/m2 BKN
20:15 -5.2 °C -13.3 °C 34097 hPa Calm     39 % 0 mm 18.0 W/m2 BKN
20:20 -5.2 °C -13.3 °C 34097 hPa Calm     39 % 0 mm 11.0 W/m2 BKN
20:25 -5.2 °C -13.2 °C 34107.2 hPa WNW 15 km/h 15 km/h 40 % 0 mm 5.0 W/m2 OVC
20:30 -5.2 °C -13.2 °C 34107.2 hPa WNW 20.9 km/h 20.9 km/h 40 % 0 mm 5.0 W/m2 OVC
20:35 -5.3 °C -13.1 °C 34107.2 hPa WNW 11.9 km/h 11.9 km/h 41 % 0 mm 5.0 W/m2 OVC
20:40 -5.4 °C -12.9 °C 34120.7 hPa WNW 9 km/h 9 km/h 42 % 0 mm 7.0 W/m2 BKN
20:45 -5.4 °C -13.2 °C 34120.7 hPa West 7.7 km/h 7.7 km/h 41 % 0 mm 5.0 W/m2 OVC
20:50 -5.4 °C -13.2 °C 34120.7 hPa WNW 9 km/h 9 km/h 41 % 0 mm 0.0 W/m2 OVC
20:55 -5.4 °C -12.9 °C 34130.9 hPa WNW 11.9 km/h 11.9 km/h 42 % 0 mm 0.0 W/m2 OVC
21:00 -5.4 °C -12.9 °C 34130.9 hPa West 20.9 km/h 20.9 km/h 42 % 0 mm 0.0 W/m2 OVC
21:05 -5.5 °C -12.8 °C 34144.4 hPa WNW 54.4 km/h 54.4 km/h 43 % 0 mm 0.0 W/m2 OVC
21:10 -5.9 °C -12.6 °C 34154.6 hPa WNW 53.6 km/h 53.6 km/h 46 % 0 mm 0.0 W/m2 OVC
21:15 -6.1 °C -12.6 °C 34154.6 hPa WNW 44.7 km/h 44.7 km/h 47 % 0 mm 0.0 W/m2 OVC
21:20 -6.4 °C -12.6 °C 34154.6 hPa NW 35.7 km/h 35.7 km/h 49 % 0 mm 0.0 W/m2 CLR
21:25 -6.6 °C -12.1 °C 34164.7 hPa WNW 31.1 km/h 31.1 km/h 53 % 0 mm 0.0 W/m2 CLR
21:30 -6.8 °C -12.2 °C 34164.7 hPa WNW 29.8 km/h 29.8 km/h 54 % 0 mm 0.0 W/m2 CLR
21:35 -7 °C -12.1 °C 34164.7 hPa NW 26.9 km/h 26.9 km/h 55 % 0 mm 0.0 W/m2 CLR
21:36 -7 °C -12.2 °C 34164.7 hPa NW 23.8 km/h 23.8 km/h 55 % 0 mm 0.0 W/m2 CLR
21:41 -7.1 °C -11.9 °C 34178.3 hPa NNW 6 km/h 6 km/h 57 % 0 mm 0.0 W/m2 CLR
21:46 -7.2 °C -11.8 °C 34178.3 hPa Calm     58 % 0 mm 0.0 W/m2 CLR
21:51 -7.3 °C -11.7 °C 34178.3 hPa Calm     60 % 0 mm 0.0 W/m2 CLR
21:56 -7.4 °C -11.6 °C 34188.4 hPa Calm     61 % 0 mm 0.0 W/m2 CLR
22:01 -7.4 °C -11.6 °C 34188.4 hPa Calm     62 % 0 mm 0.0 W/m2 CLR
22:06 -7.5 °C -11.8 °C 34188.4 hPa Calm     61 % 0 mm 0.0 W/m2 CLR
22:11 -7.6 °C -11.7 °C 34198.6 hPa Calm     62 % 0 mm 0.0 W/m2 CLR
22:16 -7.6 °C -11.7 °C 34198.6 hPa Calm     62 % 0 mm 0.0 W/m2 CLR
22:21 -7.6 °C -11.6 °C 34198.6 hPa Calm     63 % 0 mm 0.0 W/m2 CLR
22:22 -7.6 °C -11.6 °C 34198.6 hPa Calm     63 % 0 mm 0.0 W/m2 CLR
22:26 -7.6 °C -11.4 °C 34198.6 hPa Calm     64 % 0 mm 0.0 W/m2 CLR
22:31 -7.7 °C -11.3 °C 34212.1 hPa Calm     65 % 0 mm 0.0 W/m2 CLR
22:36 -7.7 °C -11.6 °C 34212.1 hPa Calm     64 % 0 mm 0.0 W/m2 CLR
22:41 -7.6 °C -12.1 °C 34212.1 hPa WNW 10.3 km/h 10.3 km/h 59 % 0 mm 0.0 W/m2 CLR
22:46 -7.3 °C -12.2 °C 34212.1 hPa WNW 20.9 km/h 20.9 km/h 57 % 0 mm 0.0 W/m2 CLR
22:51 -7.1 °C -12.3 °C 34212.1 hPa West 23.8 km/h 23.8 km/h 55 % 0 mm 0.0 W/m2 CLR
22:56 -7 °C -12.3 °C 34212.1 hPa WNW 35.7 km/h 35.7 km/h 54 % 0 mm 0.0 W/m2 CLR
23:01 -7 °C -12.3 °C 34222.3 hPa WNW 33.6 km/h 33.6 km/h 54 % 0 mm 0.0 W/m2 CLR
23:06 -7.1 °C -12.4 °C 34222.3 hPa West 29.8 km/h 29.8 km/h 54 % 0 mm 0.0 W/m2 CLR
23:11 -7.2 °C -12.4 °C 34235.8 hPa WNW 20.9 km/h 20.9 km/h 54 % 0 mm 0.0 W/m2 CLR
23:12 -7.2 °C -12.3 °C 34235.8 hPa WNW 20.9 km/h 20.9 km/h 55 % 0 mm 0.0 W/m2 CLR
23:17 -7.3 °C -12.4 °C 34235.8 hPa WNW 26.9 km/h 26.9 km/h 55 % 0 mm 0.0 W/m2 CLR
23:22 -7.3 °C -12.4 °C 34235.8 hPa West 29.8 km/h 29.8 km/h 55 % 0 mm 0.0 W/m2 CLR
23:23 -7.3 °C -12.4 °C 34235.8 hPa WNW 20.9 km/h 20.9 km/h 55 % 0 mm 0.0 W/m2 CLR
23:28 -7.4 °C -12.5 °C 34235.8 hPa West 29.8 km/h 29.8 km/h 55 % 0 mm 0.0 W/m2 CLR
23:33 -7.4 °C -12.4 °C 34235.8 hPa West 35.7 km/h 35.7 km/h 56 % 0 mm 0.0 W/m2 CLR
23:38 -7.4 °C -12.4 °C 34246 hPa West 41.7 km/h 41.7 km/h 56 % 0 mm 0.0 W/m2 CLR
23:43 -7.4 °C -12.6 °C 34246 hPa West 38.8 km/h 38.8 km/h 55 % 0 mm 0.0 W/m2 CLR
23:48 -7.4 °C -12.6 °C 34256.2 hPa WNW 29.8 km/h 29.8 km/h 55 % 0 mm 0.0 W/m2 CLR
23:53 -7.5 °C -12.6 °C 34246 hPa WNW 23.8 km/h 23.8 km/h 55 % 0 mm 0.0 W/m2 CLR
23:58 -7.6 °C -12.6 °C 34246 hPa WNW 15 km/h 15 km/h 56 % 0 mm 0.0 W/m2 CLR
Lo Temps de Massalio
Compliments of Weather Underground - 1.25 mb